Αρχική σελίδα
METAR-TAF:

METAR-TAF

Αεροδρόμια :

Hugoton, Κάνσας, Ηνωμένες Πολιτείες Αμερικής

γεωγραφικό πλάτος: 37-09-47N, γεωγραφικό μήκος: 101-22-14W, υψόμετρο: 955 μ

Παρών καιρός

Η αναφορά έγινε 9 λεπτά πριν, στις 17:15 UTC
Άνεμος 9 kt από Β
Θερμοκρασία -9°C
Υγρασία 79%
Πίεση 1028 hPa
Ορατότητα: 16.1 χλμ
Διάσπαρτα νέφη σε ύψος 1500 πόδια
Αρκετά νέφη σε ύψος 2900 πόδια
Νεφοσκεπής σε ύψος 5500 πόδια

METAR: KHQG 181715Z AUTO 01009KT 10SM SCT015 BKN029 OVC055 M09/M12 A3036 RMK AO2 T10881120

Χρόνος: 11:24 (17:24 UTC)


TAF: λείπει

Μετεωρολογικές αναφορές και προγνώσεις για περισσότερα από 4000 αεροδρόμια (δελτία METAR και TAF).

Οι διαθέσιμοι σταθμοί απεικονίζονται στο χάρτη με κίτρινες και κόκκινες κουκκίδες.

Μετακινήστε το ποντίκι πάνω από τις κουκκίδες για να δείτε το όνομα του σταθμού.

Στη συνέχεια, κάντε κλικ για να δείτε τις μετεωρολογικές αναφορές και τις προγνώσεις καιρού.

Για να αλλάξετε το χάρτη: κάντε κλικ στα πράσινα κουμπιά με τον μαύρο σταυρό για να ζουμάρετε, στο πράσινο κουμπί με την παύλα για να αφαιρέσετε το ζουμ ή στα πράσινα βέλη για να αντιπαραβάλλετε χάρτες.


METAR-TAF: